Regional Weather Roundup
Issued by NWS

Home | Current Version | Previous Version | Graphics & Text | Print | Product List | Glossary On
Versions: 1 2 3 4 5 6 7 8 9 10 11 12 13 14 15 16 17 18 19 20 21 22 23 24 25 26 27 28 29 30 31 32 33 34 35 36 37 38 39 40 41 42 43 44 45 46 47 48 49 50
000
ASUS43 KOAX 231010
RWRNE

WEATHER ROUNDUP FOR NEBRASKA
NATIONAL WEATHER SERVICE OMAHA NE
500 AM CDT MON OCT 23 2017

NOTES: SATELLITE DATA IS BEING USED TO AUGMENT CLOUD COVER ABOVE
       12000 FEET.
       "FAIR" INDICATES FEW OR NO CLOUDS BELOW 12,000 FEET WITH NO
       SIGNIFICANT WEATHER AND/OR OBSTRUCTIONS TO VISIBILITY.


NEZ001>004-019>022-054>056-231100-
NEBRASKA PANHANDLE

CITY           SKY/WX    TMP DP  RH WIND       PRES   REMARKS
SCOTTSBLUFF    CLOUDY    46  34  62 NW23G32   30.23R
ALLIANCE       CLOUDY    44  34  67 NW10      30.19R
CHADRON        CLOUDY    45  35  68 W9        30.18R
GORDON         CLOUDY    44  39  82 W7        30.17R
KIMBALL        CLOUDY    46  33  61 N25G35    30.24R
SIDNEY         CLOUDY    48  34  58 N32       30.22R
$$

NEZ057>060-069>072-079>082-231100-
SOUTHWEST NEBRASKA

CITY           SKY/WX    TMP DP  RH WIND       PRES   REMARKS
NORTH PLATTE   PTCLDY    54  38  54 N15G22    30.09R
IMPERIAL       CLOUDY    54  34  46 N16G28    30.13R
LEXINGTON      CLOUDY    50  38  62 NW10      30.04R
MCCOOK         CLOUDY    53  35  50 N16       30.07R
OGALLALA       CLOUDY    55  35  46 N16G25    30.15R
$$

NEZ005>010-023>029-035>040-094-231100-
NORTH CENTRAL NEBRASKA

CITY           SKY/WX    TMP DP  RH WIND       PRES   REMARKS
VALENTINE      CLOUDY    57  30  35 NW17G28   30.08R
AINSWORTH      LGT RAIN  55  39  54 NW17G25   30.08R
BROKEN BOW     PTCLDY    56  39  53 N22G28    30.03R
O`NEILL        MOCLDY    57  40  53 NW22G28   29.97R
ORD            CLOUDY    58  39  49 NW17G33   29.98R
THEDFORD       PTCLDY    53  37  53 NW18G29   30.11R
$$

NEZ041-046>049-061>064-073>077-083>087-231100-
SOUTH CENTRAL NEBRASKA

CITY           SKY/WX    TMP DP  RH WIND       PRES   REMARKS
GRAND ISLAND   CLOUDY    55  37  50 NW18      29.94R
AURORA         CLOUDY    53  33  48 NW14G21   29.91S
HASTINGS       CLEAR     53  33  46 NW17G24   29.94R
HEBRON         CLOUDY    47  32  56 W5        29.90S
HOLDREGE       CLEAR     54  36  50 N12G18    29.98R
KEARNEY        CLEAR     55  36  48 NW16G26   29.98R
YORK           CLEAR     46  34  61 NW8       29.90R
$$

NEZ011>018-030>034-042>045-231100-
NORTHEAST NEBRASKA

CITY           SKY/WX    TMP DP  RH WIND       PRES   REMARKS
NORFOLK        CLOUDY    58  38  47 NW17G24   29.89R
ALBION         CLOUDY    61  39  45 NW23G31   29.93R
BLAIR          CLOUDY    49  34  56 S8        29.85S
COLUMBUS       CLOUDY    49  34  56 W7        29.89R
FREMONT        CLOUDY    49  34  56 SW5       29.88R
TEKAMAH        MOCLDY    44  35  70 CALM      29.86R
WAYNE          CLOUDY    55  32  41 NW9       29.88R
$$

NEZ050>053-065>068-078-088>093-231100-
SOUTHEAST NEBRASKA

CITY           SKY/WX    TMP DP  RH WIND       PRES   REMARKS
LINCOLN        PTCLDY    52  31  44 W6        29.91R
OMAHA EPPLEY   CLOUDY    47  36  65 S9        29.86F
BEATRICE       CLEAR     46  35  64 S3        29.89S
FALLS CITY     CLEAR     45  37  73 S6        29.90F
NEBRASKA CITY  PTCLDY    46  36  68 S9        29.87F
PLATTSMOUTH    MOCLDY    48  35  60 S8        29.86F
$$

NEZ044-045-051>053-067-231100-
OMAHA AREA

CITY           SKY/WX    TMP DP  RH WIND       PRES   REMARKS
OMAHA EPPLEY   CLOUDY    47  36  65 S9        29.86F
BLAIR          CLOUDY    49  34  56 S8        29.85S
FREMONT        CLOUDY    49  34  56 SW5       29.88R
MILLARD        MOCLDY    47  36  65 CALM      29.86S
OFFUTT AFB     PTCLDY    40  37  86 E3        29.85F
PLATTSMOUTH    MOCLDY    48  35  60 S8        29.86F
WAHOO          FAIR      46  35  64 W7        29.88R
$$



USA.gov is the U.S. government's official web portal to all federal, state and local government web resources and services.